Hourly Data Report for December 30, 2016

TORONTO CITY
ONTARIO

43°40'00.000" N
79°24'00.000" W
112.50 m
6158355
71508
XTO

Download Data

Hourly Data (December 2016)
Hourly Data Report for December 30, 2016
TIME
LST
Temp Definition
°C
Dew Point Definition
°C
Rel Hum Definition
%
Precip. Amount Definition
mm

Wind Dir Definition
10's deg

Wind Spd Definition
km/h
Visibility Definition
km
Stn Press Definition
kPa
Hmdx Definition


Wind Chill Definition


Weather Definition


00:00 0.6 -2.6 79 0.0 LegendMM LegendMM   98.69     LegendNANA
01:00 0.3 -2.8 80 0.0 LegendMM LegendMM   98.67     LegendNANA
02:00 0.5 -2.5 81 0.0 LegendMM LegendMM   98.69     LegendNANA
03:00 -0.1 -2.2 86 0.2 LegendMM LegendMM   98.73     LegendNANA
04:00 -0.6 -1.8 91 0.5 LegendMM LegendMM   98.76     LegendNANA
05:00 -0.5 -4.1 76 0.0 LegendMM LegendMM   98.78     LegendNANA
06:00 -1.0 -6.3 67 0.0 LegendMM LegendMM   98.88     LegendNANA
07:00 -1.6 -6.6 69 0.0 LegendMM LegendMM   98.96     LegendNANA
08:00 -1.9 -6.7 70 0.0 LegendMM LegendMM   99.00     LegendNANA
09:00 -1.9 -6.7 70 0.0 LegendMM LegendMM   99.08     LegendNANA
10:00 -1.9 -6.6 70 0.0 LegendMM LegendMM   99.20     LegendNANA
11:00 -1.4 -6.2 69 0.0 LegendMM LegendMM   99.27     LegendNANA
12:00 -0.9 -6.6 65 0.0 LegendMM LegendMM   99.26     LegendNANA
13:00 -0.4 -6.8 62 0.0 LegendMM LegendMM   99.29     LegendNANA
14:00 -0.6 -7.1 61 0.0 LegendMM LegendMM   99.34     LegendNANA
15:00 -0.8 -7.1 62 0.0 LegendMM LegendMM   99.44     LegendNANA
16:00 -1.2 -7.8 61 0.0 LegendMM LegendMM   99.55     LegendNANA
17:00 -1.8 -8.6 60 0.0 LegendMM LegendMM   99.63     LegendNANA
18:00 -2.1 -8.0 64 0.0 LegendMM LegendMM   99.74     LegendNANA
19:00 -2.1 -5.8 76 0.0 LegendMM LegendMM   99.78     LegendNANA
20:00 -1.9 -6.5 71 0.0 LegendMM LegendMM   99.82     LegendNANA
21:00 -1.8 -6.3 72 0.0 LegendMM LegendMM   99.87     LegendNANA
22:00 -2.0 -6.4 72 0.0 LegendMM LegendMM   99.91     LegendNANA
23:00 -1.9 -6.8 69 0.0 LegendMM LegendMM   99.92     LegendNANA

Notes on Data Quality.

Legend

  • E = Estimated
  • M = Missing
  • NA = Not Available*
  • [empty] = Indicates an unobserved value
Date modified: